Hourly Data Report for September 29, 2017

All times are specified in Local Standard Time (LST). Add 1 hour to adjust for Daylight Saving Time where and when it is observed.

OTTAWA INTL A
ONTARIO

45°19'00.000" N
75°40'00.000" W
114.90 m
6106001
71628
YOW

Download Data

Hourly Data (September 2017)
Hourly Data Report for September 29, 2017
Temp Definition
°C
Dew Point Temp Definition
°C
Rel Hum Definition
%
Wind Dir Definition
10's deg

Wind Spd Definition
km/h
Visibility Definition
km
Stn Press Definition
kPa
Hmdx Definition


Wind Chill Definition


Weather Definition


TIME
00:00 Legend Double Dagger 7.5 4.0 79 31 14 24.1 100.37     LegendNANA
01:00 Legend Double Dagger 6.5 3.0 78 28 6 24.1 100.38     Clear
02:00 Legend Double Dagger 6.9 4.3 83 30 11 24.1 100.43     LegendNANA
03:00 Legend Double Dagger 5.0 3.5 90 32 9 24.1 100.39     LegendNANA
04:00 Legend Double Dagger 4.5 2.5 87 30 7 24.1 100.41     Clear
05:00 Legend Double Dagger 4.8 3.1 89 31 10 24.1 100.45     LegendNANA
06:00 Legend Double Dagger 5.0 3.4 89 31 9 24.1 100.49     LegendNANA
07:00 Legend Double Dagger 7.5 5.2 85 36 9 24.1 100.53     Clear
08:00 Legend Double Dagger 9.6 4.7 71 1 10 24.1 100.53     LegendNANA
09:00 Legend Double Dagger 11.1 2.7 56 5 6 24.1 100.54     LegendNANA
10:00 Legend Double Dagger 12.6 2.4 50 35 7 24.1 100.53     Mostly Cloudy
11:00 Legend Double Dagger 13.5 2.8 48 7 4 24.1 100.49     LegendNANA
12:00 Legend Double Dagger 13.8 3.6 50 1 15 24.1 100.44     LegendNANA
13:00 Legend Double Dagger 14.6 4.5 51 2 8 24.1 100.40     Mostly Cloudy
14:00 Legend Double Dagger 14.1 4.3 52 1 5 24.1 100.38     LegendNANA
15:00 Legend Double Dagger 13.9 4.6 53 1 13 24.1 100.37     LegendNANA
16:00 Legend Double Dagger 13.2 4.5 55 2 11 24.1 100.39     Mostly Cloudy
17:00 Legend Double Dagger 12.7 4.6 58 36 17 24.1 100.42     LegendNANA
18:00 Legend Double Dagger 11.5 5.0 64 1 21 24.1 100.46     Rain Showers
19:00 Legend Double Dagger 10.3 5.7 73 1 21 24.1 100.51     Cloudy
20:00 Legend Double Dagger 9.6 6.2 79 2 21 24.1 100.55     Rain Showers
21:00 Legend Double Dagger 9.0 7.1 88 36 19 16.1 100.58     Rain Showers
22:00 Legend Double Dagger 8.9 7.3 90 36 20 16.1 100.63     Rain Showers
23:00 Legend Double Dagger 8.9 7.2 89 36 21 24.1 100.66     LegendNANA

Notes on Data Quality.

Legend

  • E = Estimated
  • M = Missing
  • NA = Not Available
  • ‡ = Partner data that is not subject to review by the National Climate Archives
Date modified: